This is the latest recevied weather packets stored in our database for station/object YO4ISC-13. If no packets are shown the sender has not sent any weather packets the latest 10 day(s).
| Time | Temp. | Humidity | Pressure | Rain* | Wind** | Luminosity | Snow |
|---|---|---|---|---|---|---|---|
| 1777887601 | 15° C | 35% | 1017 hPa | - | - | - | - |
| 1777887002 | 15.56° C | 35% | 1017 hPa | - | - | - | - |
| 1777886401 | 15° C | 38% | 1017 hPa | - | - | - | - |
| 1777885802 | 15° C | 46% | 1017 hPa | - | - | - | - |
| 1777885202 | 15° C | 45% | 1017 hPa | - | - | - | - |
| 1777884602 | 14.44° C | 49% | 1017 hPa | - | - | - | - |
| 1777884001 | 14.44° C | 50% | 1017 hPa | - | - | - | - |
| 1777883402 | 13.89° C | 52% | 1017 hPa | - | - | - | - |
| 1777882801 | 13.33° C | 53% | 1017 hPa | - | - | - | - |
| 1777882202 | 13.33° C | 56% | 1017 hPa | - | - | - | - |
| 1777881603 | 13.33° C | 55% | 1017 hPa | - | - | - | - |
| 1777881002 | 12.78° C | 56% | 1017 hPa | - | - | - | - |
| 1777880401 | 12.78° C | 58% | 1017 hPa | - | - | - | - |
| 1777879802 | 12.22° C | 57% | 1017 hPa | - | - | - | - |
| 1777879202 | 12.22° C | 57% | 1017 hPa | - | - | - | - |
| 1777878602 | 11.67° C | 56% | 1017 hPa | - | - | - | - |
| 1777878003 | 11.67° C | 58% | 1017 hPa | - | - | - | - |
| 1777877402 | 11.11° C | 60% | 1017 hPa | - | - | - | - |
| 1777876802 | 10.56° C | 61% | 1017 hPa | - | - | - | - |
| 1777876202 | 10.56° C | 61% | 1017 hPa | - | - | - | - |
| 1777875602 | 10.56° C | 63% | 1017 hPa | - | - | - | - |
| 1777875002 | 9.44° C | 65% | 1017 hPa | - | - | - | - |
| 1777874403 | 9.44° C | 67% | 1017 hPa | - | - | - | - |
| 1777873802 | 9.44° C | 66% | 1017 hPa | - | - | - | - |
| 1777873202 | 8.89° C | 69% | 1017 hPa | - | - | - | - |
* Rain since midnight (hover to see other rain measurements)
** Current wind speed in m/s (hover to see current wind gust speed)